MICROSAT-TD

Last updated on Nov. 28, 2020, 6:19 a.m. UTC

1 43128U 18004T   20332.73716149  .10569677  20755-5  34442-3 0  9994
2 43128  96.5543  22.8890 0008817 256.0248 104.0076 16.44115419165356

Satellite is not in orbit.